Regional Weather Roundup
Issued by NWS

Home | Current Version | Previous Version | Text Only | Print | Product List | Glossary On
Versions: 1 2 3 4 5 6 7 8 9 10 11 12 13 14 15 16 17 18 19 20 21 22 23 24 25 26 27 28 29 30 31 32 33 34 35 36 37 38 39 40 41 42 43 44 45 46 47 48 49 50
000
ASUS42 KTBW 011710
RWRFL
FLORIDA REGIONAL WEATHER ROUNDUP
NATIONAL WEATHER SERVICE TAMPA BAY RUSKIN FL
100 PM EDT WED OCT 01 2014

NOTE: "FAIR" INDICATES FEW OR NO CLOUDS BELOW 12,000 FEET WITH NO
SIGNIFICANT WEATHER AND/OR OBSTRUCTIONS TO VISIBILITY.


FLZ001>010-012>015-112-114-115-011800-
PANHANDLE FLORIDA

CITY           SKY/WX    TMP DP  RH WIND       PRES   REMARKS
PENSACOLA      MOSUNNY   82  69  64 VRB5      29.98F
PENSACOLA NAS  PTSUNNY   83  72  69 E8        29.97F
MILTON NAS     PTSUNNY   82  67  60 SE7       29.99S
CRESTVIEW      CLOUDY    81  67  62 CALM      30.00F
DUKE FIELD     PTSUNNY   80  73  76 CALM      29.99F
VALPARAISO     PTSUNNY   80  68  66 SE3       29.99S
MARY ESTHER    DRIZZLE   82  64  54 VRB2      29.97F
TRI COUNTY     CLOUDY    80  69  69 VRB3      30.00F
PANAMA CITY    CLOUDY    82  70  65 CALM      29.98S
TYNDALL AFB    PTSUNNY   83  77  83 E2        29.98S
APALACHICOLA   MOSUNNY   84  72  67 E10       29.98R

STATION/POSITION SKY/WX   TEMP    WIND        PRES    WAVE   SWELL
                          AIR SEA DIR/SP/G            HT/PER HT/PER
                          (F)     (DEG/KT/KT) (MB)    (FT/S) (FT/S)
30.1N   87.6W              79 82   80/ 10/ 12 1015.0F   1/ 3
29.2N   88.2W              81 83  130/  6/  8 1015.0F   1/ 4   2/ 4
28.8N   86.0W              82 85   CALM  /  2 1014.8R   1/ 4   2/ 4
PANAMA CITY BEAC           79 81   50/  4/  7 1015.2S
CAPE SAN BLAS    NOT AVBL
TOWER C                    78      80/  9/ 10 1014.9R

$$
FLZ011-016>038-118-127-128-134-139-239-011800-
NORTH FLORIDA

CITY           SKY/WX    TMP DP  RH WIND       PRES   REMARKS
MARIANNA       CLOUDY    81  72  74 VRB6      29.99F
TALLAHASSEE    PTSUNNY   82  68  62 NE5       29.98F
PERRY          SUNNY     68  57  68 NE6       29.98F
CROSS CITY       N/A     83  70  64 E3        29.96F
LAKE CITY      CLOUDY    77  72  83 NE7       29.98F
GAINESVILLE    LGT RAIN  78  73  84 NE8       29.97F
MAYPORT NAS    PTSUNNY   81  73  76 NE13      29.97F
JACKSONVILLE   CLOUDY    80  71  74 NE9       29.97F
JAX NAS        CLOUDY    83  70  64 NE10      29.97F
JAX CRAIG      CLOUDY    80  71  74 NE9       29.97F
JAX CECIL      PTSUNNY   81  72  74 NE9       29.97F
FERNANDINA BEA CLOUDY    84  73  70 NE9       29.97S
ST AUGUSTINE   CLOUDY    82  73  74 NE15      29.97F

STATION/POSITION SKY/WX   TEMP    WIND        PRES    WAVE   SWELL
                          AIR SEA DIR/SP/G            HT/PER HT/PER
                          (F)     (DEG/KT/KT) (MB)    (FT/S) (FT/S)
SHELL POINT                78      60/  2/  4   N/A
KEATON BEACH               81      CALM  /  1 1014.9F
CEDAR KEY                  78      70/  7/  8 1015.1R
FERNANDINA                 77 78   20/  8/ 11 1014.8F
30.7N   81.3W                 79                N/A     3/ 8
MAYPORT                    78 79   30/ 11/ 13   N/A
31.4N   80.9W              76 79   40/  8/ 10 1015.4F   2/ 6   2/ 6
ST AUGUSTINE               80      50/  9/  9 1015.1F

$$
FLZ040-043>046-052-053-057-058-063-144-011800-
INTERIOR CENTRAL FLORIDA

CITY           SKY/WX    TMP DP  RH WIND       PRES   REMARKS
OCALA          PTSUNNY   82  73  74 E5        29.96S
THE VILLAGES     N/A     84  75  74 CALM      29.85S
LEESBURG       CLOUDY    83  75  77 SE7       29.95F
SANFORD        CLOUDY    83  73  72 E7        29.94F
ORLANDO EXEC   LGT RAIN  82  75  79 N3        29.94F
ORLANDO INTL   PTSUNNY   83  76  79 VRB6      29.93F
KISSIMMEE      PTSUNNY   84  77  79 SE6       29.94F
WINTER HAVEN   PTSUNNY   85  73  67 W9        29.94F
LAKELAND       PTSUNNY   84  73  70 W13       29.94F
BARTOW         PTSUNNY   84  72  65 W13       29.94F
OKEECHOBEE     MOSUNNY   88  75  66 MISG      29.94F HX  97

$$
FLZ041-047-054-059-064-141-147-011800-
EAST CENTRAL FLORIDA

CITY           SKY/WX    TMP DP  RH WIND       PRES   REMARKS
ORMOND BEACH   PTSUNNY   82  73  74 NE6       29.95F
DAYTONA BEACH  PTSUNNY   84  71  65 VRB3      29.95F
DELAND         CLOUDY    82  73  74 NE7       29.95F
NEW SMYRNA BEA PTSUNNY   84  73  70 E6        29.95F
JFK SPACE CTR  CLOUDY    82  73  74 E8        29.94F
TITUSVILLE     CLOUDY    81  73  78 NE9       29.95
CAPE CANAVERAL SUNNY     79  76  88 N7        29.93F
PATRICK AFB    MOSUNNY   82  77  83 NE7       29.93F
MELBOURNE      PTSUNNY   85  76  74 N3        29.92F
VERO BEACH     PTSUNNY   83  75  77 NW6       29.92F
FT PIERCE      PTSUNNY   88  74  63 W9        29.92F HX  96

STATION/POSITION SKY/WX   TEMP    WIND        PRES    WAVE   SWELL
                          AIR SEA DIR/SP/G            HT/PER HT/PER
                          (F)     (DEG/KT/KT) (MB)    (FT/S) (FT/S)
28.5N   80.2W              80 83  350/  8/ 12 1014.0F
28.9N   78.5W              77 84   40/  6/  8 1014.1F   3/ 8   3/ 8
TRIDENT PIER               80 84   20/  8/ 10 1013.4F
28.4N   80.5W                 83                N/A     2/ 8
27.6N   80.2W                 84                N/A     2/ 8

$$
FLZ050-056-061-142-242-148-248-149-249-151-251-155-255-
160-260-011800-
WEST CENTRAL FLORIDA

CITY           SKY/WX    TMP DP  RH WIND       PRES   REMARKS
CRYSTAL RIVER  CLOUDY    82  72  69 NE3       29.95F
INVERNESS      CLOUDY    82  43  24 E3        29.96S
BROOKSVILLE    CLOUDY    82  75  79 NE5       29.95F
ZEPHYRHILLS      N/A     75  73  94 CALM      29.96S
CLEARWATER     MOSUNNY   86  74  67 W9        29.94F
TAMPA INTL     MOSUNNY   83  74  74 W7        29.95S
TAMPA EXEC     PTSUNNY   86  75  70 N5        29.95F HX  95
PLANT CITY     MOSUNNY   86  75  70 NW3       29.96S HX  95
MACDILL AFB    SUNNY     89  79  73 W5        29.95S HX 105
ST PETERSBURG  PTSUNNY   83  72  69 W7        29.93S
SARASOTA       MOSUNNY   86  75  69 W10       29.94S HX  95
VENICE           N/A     84  75  74 MISG      29.95F

STATION/POSITION SKY/WX   TEMP    WIND        PRES    WAVE   SWELL
                          AIR SEA DIR/SP/G            HT/PER HT/PER
                          (F)     (DEG/KT/KT) (MB)    (FT/S) (FT/S)
CEDAR KEY                  78      70/  7/  8 1015.1R
27.3N   84.3W                 85                N/A     2/ 4
CLEARWATER BEACH           81 83  330/  3/  4 1013.9S
MIDDLE TAMPA BAY           81     280/  4/  5 1014.4F
VENICE                     84 85  260/  9/ 10 1013.6F

$$
FLZ066-069-070-075>078-162-262-165-265-011800-
SOUTHWEST FLORIDA AND KEYS

CITY           SKY/WX    TMP DP  RH WIND       PRES   REMARKS
PUNTA GORDA    PTSUNNY   88  75  65 W9        29.96S HX  97
FT MYERS       PTSUNNY   85  75  72 W14G21    29.93F
SOUTHWEST INTL PTSUNNY   85  76  74 SW12      29.95S
NAPLES         MOSUNNY   88  77  69 W12       29.94F HX 100
MARCO ISLAND   MOSUNNY   88  77  70 W12       29.95F HX 100
MARATHON       PTSUNNY   91  79  67 VRB7      29.96F HX 107
KEY WEST NAS   MOSUNNY   89  76  65 SW9       29.96F HX 100
KEY WEST INTL  SUNNY     87  77  72 SW8       29.96F HX  99

STATION/POSITION SKY/WX   TEMP    WIND        PRES    WAVE   SWELL
                          AIR SEA DIR/SP/G            HT/PER HT/PER
                          (F)     (DEG/KT/KT) (MB)    (FT/S) (FT/S)
VENICE                     84 85  260/  9/ 10 1013.6F
NAPLES                     85 88  260/  8/ 11 1014.9F
DRY TORTUGAS               85     220/  5/  6 1014.9R
NW FL BAY                  85     270/  6/  7 1015.0R
SAND KEY                   84     230/  7/  8 1014.6F
SOMBRERO KEY               84     230/  7/  8 1015.1F
LONG KEY                   85 87  270/  7/  9 1015.6R
MOLASSES REEF              84 86  250/ 10/ 10 1014.4F

$$
FLZ067-068-071>074-168-172>174-011800-
SOUTHEAST FLORIDA

CITY           SKY/WX    TMP DP  RH WIND       PRES   REMARKS
W PALM BEACH   LGT RAIN  88  77  69 CALM      29.93S HX 100
FT LAUDER-EXEC MOSUNNY   89  71  55 SW10      29.93F HX  95
FT LAUDERDALE  PTSUNNY   92  71  50 W10G17    29.93F HX  98
POMPANO BEACH  MOSUNNY   92  72  51 W10G21    29.93F HX  99
PEMBROKE PINES MOSUNNY   90  73  57 W13       29.95F HX  98
OPA LOCKA      MOSUNNY   90  72  55 SW10G21   29.95F HX  97
MIAMI          MOSUNNY   91  73  55 SW10      29.95F HX  99
WEST KENDALL   SUNNY     92  74  55 W12       29.95F HX 101
HOMESTEAD      SUNNY     89  75  63 SW8       29.94  HX  98

STATION/POSITION SKY/WX   TEMP    WIND        PRES    WAVE   SWELL
                          AIR SEA DIR/SP/G            HT/PER HT/PER
                          (F)     (DEG/KT/KT) (MB)    (FT/S) (FT/S)
PORT EVERGLADES            89     250/  7/ 10 1013.8
VIRGINIA KEY               86 85  210/  6/  8 1014.6F
LAKE WORTH                 87 85  250/  8/ 12 1013.5F
FOWEY ROCKS                87 85  220/  6/  7 1014.4F
SETTLEMENT POINT           83     260/ 10/ 11 1014.5F

$$



USA.gov is the U.S. government's official web portal to all federal, state and local government web resources and services.